Location: Chuathbaluk
(61.5726°N, 159.2454°W)
Time: 05:07:29
(UTC+00:00)

Transit 4A - Pass Details

Date: 30 November 2020
Orbit: 864 x 980 km, 66.8° (Epoch: 26 January)

Event Time Altitude Azimuth Distance (km) Brightness Sun altitude
Rises 20:08:20 0° 235° (SW) 3,661 11.1 2.2°
Reaches altitude 10° 20:10:52 10° 236° (SW) 2,724 10.4 2.3°
Maximum altitude 20:17:18 86° 326° (NW) 992 8.2 2.7°
Drops below altitude 10° 20:23:46 10° 56° (NE) 2,738 10.3 3.1°
Sets 20:26:19 0° 57° (ENE) 3,680 11.0 3.2°
